| time (UTC) | temp F | wind direction | speed knots | gust knots | rain 1hr in | rain 24hr in | rain mn in | humidity % | barometer mb |
| 20260901225306 | 98 | 165 | 0.9 | 2.6 | 0.00 | 0.00 | 0.00 | 32 | 1015.0 |
| 20260901224802 | 98 | 100 | 0.9 | 1.7 | 0.00 | 0.00 | 0.00 | 32 | 1014.7 |
| 20260901224303 | 97 | 340 | 1.7 | 2.6 | 0.00 | 0.00 | 0.00 | 33 | 1014.7 |
| 20260901223303 | 95 | 253 | 2.6 | 5.2 | 0.00 | 0.00 | 0.00 | 32 | 1014.7 |
| 20260901222803 | 97 | 101 | 0.9 | 5.2 | 0.00 | 0.00 | 0.00 | 31 | 1014.9 |
| 20260901221803 | 100 | 124 | 1.7 | 2.6 | 0.00 | 0.00 | 0.00 | 30 | 1014.9 |
| 20260901221303 | 100 | 88 | 1.7 | 4.3 | 0.00 | 0.00 | 0.00 | 28 | 1014.9 |
| 20260901220803 | 103 | 80 | 2.6 | 5.2 | 0.00 | 0.00 | 0.00 | 30 | 1014.9 |
| 20260901220302 | 102 | 84 | 2.6 | 10.4 | 0.00 | 0.00 | 0.00 | 30 | 1014.9 |
| 20260901215306 | 101 | 21 | 0.9 | 4.3 | 0.00 | 0.00 | 0.00 | 31 | 1014.9 |
| 20260901214803 | 103 | 166 | 0.9 | 1.7 | 0.00 | 0.00 | 0.00 | 30 | 1014.9 |
| 20260901213802 | 103 | 97 | 0.9 | 7.0 | 0.00 | 0.00 | 0.00 | 31 | 1014.9 |
| 20260901213303 | 101 | 74 | 0.9 | 4.3 | 0.00 | 0.00 | 0.00 | 32 | 1014.9 |
| 20260901212803 | 98 | 256 | 0.9 | 5.2 | 0.00 | 0.00 | 0.00 | 32 | 1015.0 |
| 20260901212306 | 98 | 286 | 0.9 | 5.2 | 0.00 | 0.00 | 0.00 | 31 | 1015.0 |
| 20260901211803 | 100 | 102 | 0.9 | 1.7 | 0.00 | 0.00 | 0.00 | 31 | 1015.0 |
| 20260901211303 | 101 | 117 | 1.7 | 4.3 | 0.00 | 0.00 | 0.00 | 30 | 1015.0 |
| 20260901210803 | 101 | 100 | 2.6 | 4.3 | 0.00 | 0.00 | 0.00 | 29 | 1015.2 |
| 20260901205803 | 102 | 104 | 1.7 | 7.0 | 0.00 | 0.00 | 0.00 | 29 | 1015.2 |
| 20260901205306 | 102 | 145 | 0.9 | 1.7 | 0.00 | 0.00 | 0.00 | 30 | 1015.2 |
| 20260901204803 | 101 | 144 | 0.9 | 1.7 | 0.00 | 0.00 | 0.00 | 31 | 1015.7 |
| 20260901204303 | 100 | 156 | 0.9 | 5.2 | 0.00 | 0.00 | 0.00 | 30 | 1015.7 |
| 20260901203803 | 104 | 255 | 0.9 | 5.2 | 0.00 | 0.00 | 0.00 | 28 | 1015.7 |
| 20260901203303 | 103 | 111 | 0.9 | 1.7 | 0.00 | 0.00 | 0.00 | 30 | 1015.7 |
| 20260901202803 | 105 | 255 | 0.9 | 2.6 | 0.00 | 0.00 | 0.00 | 26 | 1015.9 |
| 20260901202306 | 106 | 82 | 0.0 | 0.0 | 0.00 | 0.00 | 0.00 | 28 | 1015.9 |
| 20260901201804 | 105 | 279 | 0.9 | 0.0 | 0.00 | 0.00 | 0.00 | 28 | 1015.9 |
| 20260901201303 | 104 | 222 | 1.7 | 2.6 | 0.00 | 0.00 | 0.00 | 27 | 1015.9 |
| 20260901200803 | 105 | 178 | 1.7 | 4.3 | 0.00 | 0.00 | 0.00 | 26 | 1016.0 |
| 20260901200303 | 105 | 180 | 1.7 | 7.0 | 0.00 | 0.00 | 0.00 | 26 | 1016.0 |
| 20260901195803 | 105 | 145 | 0.9 | 7.0 | 0.00 | 0.00 | 0.00 | 27 | 1016.0 |
| 20260901195305 | 104 | 168 | 0.9 | 1.7 | 0.00 | 0.00 | 0.00 | 29 | 1016.0 |
| 20260901194303 | 102 | 136 | 2.6 | 10.4 | 0.00 | 0.00 | 0.00 | 30 | 1016.9 |
| 20260901193804 | 101 | 126 | 4.3 | 10.4 | 0.00 | 0.00 | 0.00 | 28 | 1016.9 |
| 20260901193303 | 101 | 100 | 2.6 | 5.2 | 0.00 | 0.00 | 0.00 | 31 | 1016.9 |
| 20260901192803 | 101 | 122 | 1.7 | 5.2 | 0.00 | 0.00 | 0.00 | 30 | 1016.3 |
| 20260901191802 | 101 | 238 | 1.7 | 6.1 | 0.00 | 0.00 | 0.00 | 31 | 1016.3 |
| 20260901191303 | 101 | 316 | 3.5 | 5.2 | 0.00 | 0.00 | 0.00 | 32 | 1016.3 |
| 20260901190803 | 100 | 103 | 4.3 | 10.4 | 0.00 | 0.00 | 0.00 | 32 | 1016.5 |
| 20260901190303 | 100 | 100 | 4.3 | 7.8 | 0.00 | 0.00 | 0.00 | 32 | 1016.5 |
| 20260901185803 | 99 | 121 | 4.3 | 10.4 | 0.00 | 0.00 | 0.00 | 34 | 1016.5 |
| 20260901185305 | 100 | 100 | 1.7 | 10.4 | 0.00 | 0.00 | 0.00 | 33 | 1016.5 |
| 20260901184803 | 100 | 98 | 2.6 | 5.2 | 0.00 | 0.00 | 0.00 | 36 | 1016.7 |
| 20260901184303 | 98 | 145 | 4.3 | 7.0 | 0.00 | 0.00 | 0.00 | 36 | 1016.7 |
| 20260901183304 | 98 | 25 | 3.5 | 5.2 | 0.00 | 0.00 | 0.00 | 36 | 1016.7 |
| 20260901182803 | 98 | 303 | 4.3 | 7.0 | 0.00 | 0.00 | 0.00 | 39 | 1016.9 |
| 20260901182305 | 97 | 307 | 4.3 | 6.1 | 0.00 | 0.00 | 0.00 | 40 | 1016.9 |
| 20260901180303 | 94 | 200 | 4.3 | 10.4 | 0.00 | 0.00 | 0.00 | 46 | 1017.3 |
| 20260901175803 | 93 | 97 | 4.3 | 7.0 | 0.00 | 0.00 | 0.00 | 46 | 1017.3 |
| 20260901175305 | 93 | 105 | 2.6 | 7.0 | 0.00 | 0.00 | 0.00 | 46 | 1017.3 |
| 20260901174803 | 93 | 13 | 1.7 | 4.3 | 0.00 | 0.00 | 0.00 | 47 | 1017.3 |
| 20260901174303 | 92 | 302 | 2.6 | 6.1 | 0.00 | 0.00 | 0.00 | 47 | 1017.3 |
| 20260901173803 | 92 | 302 | 2.6 | 7.0 | 0.00 | 0.00 | 0.00 | 48 | 1017.3 |
| 20260901172803 | 91 | 280 | 1.7 | 5.2 | 0.00 | 0.00 | 0.00 | 49 | 1017.6 |
| 20260901171303 | 91 | 222 | 2.6 | 7.0 | 0.00 | 0.00 | 0.00 | 50 | 1017.6 |
| 20260901170303 | 90 | 264 | 2.6 | 7.8 | 0.00 | 0.00 | 0.00 | 51 | 1017.8 |
| 20260901165803 | 90 | 122 | 2.6 | 7.8 | 0.00 | 0.00 | 0.00 | 51 | 1017.8 |
| 20260901165306 | 90 | 131 | 1.7 | 10.4 | 0.00 | 0.00 | 0.00 | 51 | 1017.8 |
| 20260901164803 | 90 | 281 | 2.6 | 10.4 | 0.00 | 0.00 | 0.00 | 52 | 1017.9 |
| 20260901164303 | 89 | 309 | 4.3 | 5.2 | 0.00 | 0.00 | 0.00 | 51 | 1017.9 |
| 20260901163803 | 89 | 98 | 6.1 | 5.2 | 0.00 | 0.00 | 0.00 | 52 | 1017.9 |
| 20260901163303 | 89 | 136 | 5.2 | 13.0 | 0.00 | 0.00 | 0.00 | 51 | 1017.9 |
| 20260901162803 | 89 | 148 | 5.2 | 13.0 | 0.00 | 0.00 | 0.00 | 51 | 1017.9 |
| 20260901162306 | 89 | 68 | 5.2 | 7.0 | 0.00 | 0.00 | 0.00 | 53 | 1017.9 |
| 20260901161804 | 88 | 51 | 6.1 | 10.4 | 0.00 | 0.00 | 0.00 | 54 | 1017.9 |
| 20260901161303 | 88 | 104 | 5.2 | 15.6 | 0.00 | 0.00 | 0.00 | 54 | 1017.9 |
| 20260901160803 | 88 | 100 | 5.2 | 15.6 | 0.00 | 0.00 | 0.00 | 55 | 1017.9 |
| 20260901160303 | 88 | 90 | 5.2 | 8.7 | 0.00 | 0.00 | 0.00 | 54 | 1017.9 |
| 20260901155803 | 88 | 142 | 5.2 | 17.4 | 0.00 | 0.00 | 0.00 | 55 | 1017.9 |
| 20260901155306 | 88 | 68 | 4.3 | 17.4 | 0.00 | 0.00 | 0.00 | 54 | 1017.9 |
| 20260901154803 | 88 | 280 | 2.6 | 7.8 | 0.00 | 0.00 | 0.00 | 56 | 1017.9 |
| 20260901154303 | 88 | 258 | 4.3 | 10.4 | 0.00 | 0.00 | 0.00 | 56 | 1017.9 |
| 20260901153803 | 87 | 142 | 4.3 | 10.4 | 0.00 | 0.00 | 0.00 | 56 | 1017.9 |
| 20260901153303 | 87 | 100 | 4.3 | 6.1 | 0.00 | 0.00 | 0.00 | 56 | 1017.9 |
| 20260901152803 | 87 | 56 | 2.6 | 6.1 | 0.00 | 0.00 | 0.00 | 57 | 1017.8 |
| 20260901151803 | 86 | 214 | 2.6 | 7.0 | 0.00 | 0.00 | 0.00 | 58 | 1017.8 |
| 20260901151303 | 86 | 110 | 2.6 | 5.2 | 0.00 | 0.00 | 0.00 | 58 | 1017.8 |
| 20260901150303 | 86 | 342 | 2.6 | 7.0 | 0.00 | 0.00 | 0.00 | 59 | 1017.7 |
| 20260901145803 | 85 | 101 | 3.5 | 6.1 | 0.00 | 0.00 | 0.00 | 60 | 1017.7 |
| 20260901145306 | 85 | 118 | 4.3 | 6.1 | 0.00 | 0.00 | 0.00 | 60 | 1017.7 |
| 20260901144803 | 84 | 347 | 2.6 | 6.1 | 0.00 | 0.00 | 0.00 | 60 | 1018.0 |
| 20260901144303 | 84 | 104 | 1.7 | 7.0 | 0.00 | 0.00 | 0.00 | 61 | 1018.0 |
| 20260901143803 | 84 | 183 | 2.6 | 2.6 | 0.00 | 0.00 | 0.00 | 62 | 1018.0 |
| 20260901143303 | 83 | 161 | 2.6 | 6.1 | 0.00 | 0.00 | 0.00 | 63 | 1018.0 |
| 20260901142803 | 83 | 114 | 2.6 | 6.1 | 0.00 | 0.00 | 0.00 | 65 | 1018.0 |
| 20260901142305 | 83 | 82 | 2.6 | 7.0 | 0.00 | 0.00 | 0.00 | 64 | 1018.0 |
| 20260901141803 | 82 | 100 | 2.6 | 7.0 | 0.00 | 0.00 | 0.00 | 66 | 1018.0 |
| 20260901141303 | 82 | 118 | 2.6 | 5.2 | 0.00 | 0.00 | 0.00 | 67 | 1018.0 |
| 20260901140303 | 81 | 100 | 1.7 | 5.2 | 0.00 | 0.00 | 0.00 | 69 | 1017.9 |
| 20260901135803 | 80 | 123 | 1.7 | 5.2 | 0.00 | 0.00 | 0.00 | 70 | 1017.9 |
| 20260901135305 | 80 | 119 | 1.7 | 4.3 | 0.00 | 0.00 | 0.00 | 70 | 1017.9 |
| 20260901133803 | 79 | 147 | 0.0 | 0.0 | 0.00 | 0.00 | 0.00 | 73 | 1018.0 |
| 20260901133303 | 79 | 145 | 0.0 | 1.7 | 0.00 | 0.00 | 0.00 | 74 | 1018.0 |
| 20260901132804 | 78 | 104 | 0.9 | 1.7 | 0.00 | 0.00 | 0.00 | 75 | 1017.8 |
| 20260901132306 | 78 | 100 | 0.0 | 0.0 | 0.00 | 0.00 | 0.00 | 75 | 1017.8 |
| 20260901131803 | 77 | 104 | 0.0 | 1.7 | 0.00 | 0.00 | 0.00 | 76 | 1017.8 |
| 20260901131303 | 77 | 123 | 0.0 | 1.7 | 0.00 | 0.00 | 0.00 | 77 | 1017.8 |
| 20260901130805 | 77 | 98 | 0.9 | 0.0 | 0.00 | 0.00 | 0.00 | 77 | 1017.9 |
| 20260901130303 | 76 | 156 | 1.7 | 2.6 | 0.00 | 0.00 | 0.00 | 78 | 1017.9 |
| 20260901125803 | 76 | 117 | 1.7 | 2.6 | 0.00 | 0.00 | 0.00 | 78 | 1017.9 |
| 20260901125308 | 76 | 145 | 0.9 | 2.6 | 0.00 | 0.00 | 0.00 | 79 | 1017.9 |
| 20260901124804 | 76 | 100 | 0.9 | 2.6 | 0.00 | 0.00 | 0.00 | 80 | 1017.7 |
| 20260901124303 | 75 | 121 | 0.9 | 2.6 | 0.00 | 0.00 | 0.00 | 80 | 1017.6 |
| 20260901123803 | 75 | 105 | 0.9 | 2.6 | 0.00 | 0.00 | 0.00 | 80 | 1017.6 |
| 20260901123303 | 75 | 160 | 0.0 | 0.0 | 0.00 | 0.00 | 0.00 | 81 | 1017.6 |
| 20260901122803 | 75 | 118 | 0.0 | 0.0 | 0.00 | 0.00 | 0.00 | 81 | 1017.5 |
| 20260901122306 | 75 | 212 | 0.0 | 0.0 | 0.00 | 0.00 | 0.00 | 81 | 1017.5 |
| 20260901121803 | 75 | 103 | 0.0 | 1.7 | 0.00 | 0.00 | 0.00 | 81 | 1017.5 |
| 20260901121303 | 74 | 122 | 0.0 | 0.0 | 0.00 | 0.00 | 0.00 | 81 | 1017.5 |
| 20260901120803 | 74 | 117 | 0.0 | 0.0 | 0.00 | 0.00 | 0.00 | 82 | 1017.4 |
| 20260901120304 | 74 | 235 | 0.0 | 0.0 | 0.00 | 0.00 | 0.00 | 82 | 1017.4 |
| 20260901115804 | 74 | 132 | 0.0 | 0.0 | 0.00 | 0.00 | 0.00 | 82 | 1017.4 |
| 20260901115306 | 74 | 144 | 0.0 | 0.0 | 0.00 | 0.00 | 0.00 | 81 | 1017.4 |
| 20260901114803 | 74 | 93 | 0.0 | 0.0 | 0.00 | 0.00 | 0.00 | 81 | 1017.2 |
| 20260901113803 | 74 | 159 | 0.0 | 0.0 | 0.00 | 0.00 | 0.00 | 80 | 1017.1 |
| 20260901113304 | 74 | 81 | 0.0 | 0.0 | 0.00 | 0.00 | 0.00 | 80 | 1017.1 |
| 20260901112306 | 74 | 171 | 0.0 | 0.0 | 0.00 | 0.00 | 0.00 | 80 | 1017.2 |
| 20260901111803 | 75 | 159 | 0.0 | 0.0 | 0.00 | 0.00 | 0.00 | 79 | 1017.2 |
| 20260901110803 | 75 | 242 | 0.0 | 0.0 | 0.00 | 0.00 | 0.00 | 80 | 1017.0 |
| 20260901110303 | 75 | 302 | 0.0 | 0.0 | 0.00 | 0.00 | 0.00 | 79 | 1016.9 |
| 20260901105803 | 75 | 107 | 0.0 | 0.0 | 0.00 | 0.00 | 0.00 | 79 | 1016.9 |
| 20260901104803 | 73 | 109 | 0.0 | 0.0 | 0.00 | 0.00 | 0.00 | 79 | 1016.9 |
| 20260901104303 | 73 | 248 | 0.0 | 0.0 | 0.00 | 0.00 | 0.00 | 79 | 1016.9 |
| 20260901103803 | 73 | 117 | 0.0 | 0.0 | 0.00 | 0.00 | 0.00 | 78 | 1016.9 |
| 20260901103303 | 73 | 108 | 0.0 | 0.0 | 0.00 | 0.00 | 0.00 | 78 | 1017.1 |
| 20260901102803 | 73 | 55 | 0.0 | 0.0 | 0.00 | 0.00 | 0.00 | 78 | 1017.0 |
| 20260901102306 | 73 | 187 | 0.0 | 0.0 | 0.00 | 0.00 | 0.00 | 78 | 1017.0 |
| 20260901101804 | 74 | 113 | 0.0 | 0.0 | 0.00 | 0.00 | 0.00 | 78 | 1017.0 |
| 20260901101303 | 74 | 106 | 0.0 | 0.0 | 0.00 | 0.00 | 0.00 | 78 | 1017.0 |
| 20260901100804 | 74 | 159 | 0.0 | 0.0 | 0.00 | 0.00 | 0.00 | 77 | 1016.8 |
| 20260901100303 | 74 | 147 | 0.0 | 0.0 | 0.00 | 0.00 | 0.00 | 78 | 1016.8 |
| 20260901095804 | 74 | 159 | 0.0 | 0.0 | 0.00 | 0.00 | 0.00 | 77 | 1016.8 |
| 20260901095306 | 74 | 145 | 0.0 | 0.0 | 0.00 | 0.00 | 0.00 | 78 | 1016.8 |
| 20260901094303 | 74 | 61 | 0.0 | 0.0 | 0.00 | 0.00 | 0.00 | 77 | 1016.9 |
| 20260901093803 | 74 | 50 | 0.0 | 0.0 | 0.00 | 0.00 | 0.00 | 77 | 1016.9 |
| 20260901092803 | 74 | 115 | 0.0 | 0.0 | 0.00 | 0.00 | 0.00 | 76 | 1016.7 |
| 20260901092305 | 74 | 100 | 0.0 | 0.0 | 0.00 | 0.00 | 0.00 | 74 | 1016.6 |
| 20260901091803 | 74 | 136 | 0.0 | 0.0 | 0.00 | 0.00 | 0.00 | 76 | 1016.6 |
| 20260901091304 | 74 | 147 | 0.0 | 0.0 | 0.00 | 0.00 | 0.00 | 74 | 1016.6 |
| 20260901090803 | 74 | 83 | 0.0 | 0.0 | 0.00 | 0.00 | 0.00 | 73 | 1016.3 |
| 20260901090303 | 74 | 122 | 0.0 | 0.0 | 0.00 | 0.00 | 0.00 | 74 | 1016.2 |
| 20260901085804 | 75 | 196 | 0.0 | 0.0 | 0.00 | 0.00 | 0.00 | 73 | 1016.2 |
| 20260901085305 | 75 | 16 | 0.0 | 0.0 | 0.00 | 0.00 | 0.00 | 72 | 1016.2 |
| 20260901084804 | 75 | 100 | 0.0 | 0.0 | 0.00 | 0.00 | 0.00 | 72 | 1016.2 |
| 20260901084304 | 75 | 100 | 0.0 | 0.0 | 0.00 | 0.00 | 0.00 | 72 | 1016.2 |
| 20260901083804 | 75 | 163 | 0.0 | 0.0 | 0.00 | 0.00 | 0.00 | 71 | 1016.2 |
| 20260901082803 | 75 | 24 | 0.0 | 0.0 | 0.00 | 0.00 | 0.00 | 71 | 1016.3 |
| 20260901082306 | 75 | 205 | 0.0 | 0.0 | 0.00 | 0.00 | 0.00 | 71 | 1016.3 |
| 20260901081305 | 75 | 106 | 0.0 | 0.0 | 0.00 | 0.00 | 0.00 | 71 | 1016.3 |
| 20260901080803 | 75 | 177 | 0.0 | 0.0 | 0.00 | 0.00 | 0.00 | 71 | 1016.2 |
| 20260901080304 | 76 | 205 | 0.0 | 0.0 | 0.00 | 0.00 | 0.00 | 70 | 1016.2 |
| 20260901075803 | 76 | 100 | 0.0 | 0.0 | 0.00 | 0.00 | 0.00 | 70 | 1016.2 |
| 20260901074803 | 76 | 83 | 0.0 | 0.0 | 0.00 | 0.00 | 0.00 | 70 | 1016.4 |
| 20260901074304 | 76 | 206 | 0.0 | 0.0 | 0.00 | 0.00 | 0.00 | 70 | 1016.4 |
| 20260901073803 | 76 | 100 | 0.0 | 0.0 | 0.00 | 0.00 | 0.00 | 69 | 1016.4 |
| 20260901073303 | 76 | 100 | 0.0 | 0.0 | 0.00 | 0.00 | 0.00 | 69 | 1016.4 |
| 20260901072803 | 76 | 136 | 0.0 | 0.0 | 0.00 | 0.00 | 0.00 | 69 | 1016.2 |
| 20260901072308 | 76 | 125 | 0.0 | 0.0 | 0.00 | 0.00 | 0.00 | 69 | 1016.2 |
| 20260901071804 | 77 | 25 | 0.0 | 1.7 | 0.00 | 0.00 | 0.00 | 69 | 1016.2 |
| 20260901071303 | 77 | 125 | 0.0 | 1.7 | 0.00 | 0.00 | 0.00 | 68 | 1016.2 |
| 20260901070803 | 77 | 230 | 0.0 | 0.0 | 0.00 | 0.00 | 0.00 | 69 | 1016.2 |
| 20260901070304 | 77 | 162 | 0.0 | 0.0 | 0.00 | 0.00 | 0.00 | 68 | 1016.2 |
| 20260901065804 | 77 | 135 | 0.0 | 0.0 | 0.00 | 0.00 | 0.00 | 68 | 1016.2 |
| 20260901065305 | 77 | 152 | 0.0 | 0.0 | 0.00 | 0.00 | 0.00 | 68 | 1016.2 |
| 20260901064804 | 77 | 177 | 0.0 | 0.0 | 0.00 | 0.00 | 0.00 | 68 | 1016.3 |
| 20260901063303 | 77 | 159 | 0.0 | 0.0 | 0.00 | 0.00 | 0.00 | 67 | 1016.3 |
| 20260901062804 | 77 | 136 | 0.0 | 0.0 | 0.00 | 0.00 | 0.00 | 67 | 1016.4 |
| 20260901062309 | 77 | 145 | 0.0 | 0.0 | 0.00 | 0.00 | 0.00 | 67 | 1016.4 |
| 20260901061804 | 78 | 122 | 0.9 | 0.0 | 0.00 | 0.00 | 0.00 | 66 | 1016.4 |
| 20260901061304 | 78 | 139 | 0.9 | 2.6 | 0.00 | 0.00 | 0.00 | 66 | 1016.4 |
| 20260901060804 | 78 | 86 | 0.0 | 2.6 | 0.00 | 0.00 | 0.00 | 66 | 1016.2 |
| 20260901055803 | 78 | 122 | 0.9 | 2.6 | 0.00 | 0.00 | 0.00 | 65 | 1016.2 |
| 20260901055306 | 78 | 100 | 1.7 | 2.6 | 0.00 | 0.00 | 0.00 | 66 | 1016.2 |
| 20260901054804 | 78 | 126 | 0.9 | 4.3 | 0.00 | 0.00 | 0.00 | 65 | 1016.3 |
| 20260901054303 | 78 | 124 | 0.9 | 4.3 | 0.00 | 0.00 | 0.00 | 65 | 1016.3 |
| 20260901053304 | 78 | 110 | 0.9 | 4.3 | 0.00 | 0.00 | 0.00 | 64 | 1016.3 |
| 20260901052804 | 79 | 123 | 0.9 | 4.3 | 0.00 | 0.00 | 0.00 | 65 | 1016.5 |
| 20260901052306 | 79 | 71 | 0.9 | 2.6 | 0.00 | 0.00 | 0.00 | 64 | 1016.5 |
| 20260901051804 | 79 | 138 | 1.7 | 2.6 | 0.00 | 0.00 | 0.00 | 64 | 1016.5 |
| 20260901050823 | 79 | 145 | 1.7 | 6.1 | 0.00 | 0.00 | 0.00 | 64 | 1016.3 |
| 20260901050304 | 79 | 258 | 0.9 | 2.6 | 0.00 | 0.00 | 0.00 | 63 | 1016.3 |
| 20260901045306 | 79 | 106 | 0.9 | 2.6 | 0.00 | 0.00 | 0.00 | 63 | 1016.3 |
| 20260901044804 | 79 | 240 | 0.9 | 5.2 | 0.00 | 0.00 | 0.00 | 62 | 1016.4 |
| 20260901044304 | 80 | 100 | 0.9 | 5.2 | 0.00 | 0.00 | 0.00 | 62 | 1016.4 |
| 20260901043304 | 80 | 100 | 0.0 | 1.7 | 0.00 | 0.00 | 0.00 | 61 | 1016.4 |
| 20260901041803 | 80 | 222 | 1.7 | 2.6 | 0.00 | 0.00 | 0.00 | 60 | 1016.4 |
| 20260901041304 | 80 | 117 | 2.6 | 4.3 | 0.00 | 0.00 | 0.00 | 60 | 1016.4 |
| 20260901040804 | 81 | 108 | 3.5 | 7.0 | 0.00 | 0.00 | 0.00 | 59 | 1016.4 |
| 20260901040304 | 81 | 140 | 2.6 | 6.1 | 0.00 | 0.00 | 0.00 | 59 | 1016.4 |
| 20260901035803 | 81 | 83 | 1.7 | 6.1 | 0.00 | 0.00 | 0.00 | 58 | 1016.4 |
| 20260901035305 | 81 | 100 | 0.9 | 5.2 | 0.00 | 0.00 | 0.00 | 58 | 1016.4 |
| 20260901034304 | 81 | 85 | 2.6 | 5.2 | 0.00 | 0.00 | 0.00 | 57 | 1016.6 |
| 20260901033804 | 81 | 95 | 2.6 | 5.2 | 0.00 | 0.00 | 0.00 | 57 | 1016.6 |
| 20260901033303 | 81 | 120 | 1.7 | 4.3 | 0.00 | 0.00 | 0.00 | 57 | 1016.6 |
| 20260901032306 | 81 | 181 | 0.9 | 4.3 | 0.00 | 0.00 | 0.00 | 57 | 1016.3 |
| 20260901031805 | 81 | 197 | 0.9 | 4.3 | 0.00 | 0.00 | 0.00 | 57 | 1016.3 |
| 20260901030803 | 81 | 140 | 0.0 | 2.6 | 0.00 | 0.00 | 0.00 | 56 | 1016.2 |
| 20260901030304 | 82 | 150 | 0.0 | 1.7 | 0.00 | 0.00 | 0.00 | 56 | 1016.2 |
| 20260901025803 | 82 | 341 | 0.0 | 2.6 | 0.00 | 0.00 | 0.00 | 56 | 1016.2 |
| 20260901025306 | 82 | 102 | 0.9 | 4.3 | 0.00 | 0.00 | 0.00 | 56 | 1016.2 |
| 20260901024803 | 82 | 109 | 0.9 | 4.3 | 0.00 | 0.00 | 0.00 | 56 | 1016.1 |
| 20260901023803 | 82 | 159 | 0.9 | 4.3 | 0.00 | 0.00 | 0.00 | 56 | 1016.1 |
| 20260901023304 | 83 | 145 | 0.9 | 5.2 | 0.00 | 0.00 | 0.00 | 56 | 1016.1 |
| 20260901022306 | 83 | 141 | 0.9 | 0.0 | 0.00 | 0.00 | 0.00 | 54 | 1016.2 |
| 20260901021803 | 83 | 339 | 0.9 | 5.2 | 0.00 | 0.00 | 0.00 | 55 | 1016.2 |
| 20260901021303 | 84 | 148 | 0.0 | 1.7 | 0.00 | 0.00 | 0.00 | 54 | 1016.2 |
| 20260901020303 | 84 | 97 | 0.0 | 0.0 | 0.00 | 0.00 | 0.00 | 54 | 1015.5 |
| 20260901015803 | 84 | 83 | 0.0 | 0.0 | 0.00 | 0.00 | 0.00 | 54 | 1015.5 |
| 20260901015305 | 85 | 102 | 0.0 | 1.7 | 0.00 | 0.00 | 0.00 | 54 | 1015.5 |
| 20260901014804 | 85 | 136 | 0.0 | 0.0 | 0.00 | 0.00 | 0.00 | 55 | 1015.8 |
| 20260901014303 | 85 | 60 | 0.0 | 0.0 | 0.00 | 0.00 | 0.00 | 53 | 1015.9 |
| 20260901013803 | 85 | 100 | 0.0 | 0.0 | 0.00 | 0.00 | 0.00 | 52 | 1015.9 |
| 20260901013304 | 85 | 321 | 0.0 | 2.6 | 0.00 | 0.00 | 0.00 | 50 | 1015.9 |
| 20260901012804 | 85 | 327 | 0.0 | 2.6 | 0.00 | 0.00 | 0.00 | 50 | 1015.6 |
| 20260901011804 | 86 | 353 | 0.0 | 0.0 | 0.00 | 0.00 | 0.00 | 49 | 1015.5 |
| 20260901010803 | 86 | 173 | 0.9 | 2.6 | 0.00 | 0.00 | 0.00 | 48 | 1015.3 |
| 20260901010304 | 87 | 119 | 0.9 | 2.6 | 0.00 | 0.00 | 0.00 | 47 | 1015.2 |
| 20260901005804 | 87 | 106 | 0.9 | 2.6 | 0.00 | 0.00 | 0.00 | 45 | 1015.2 |
| 20260901005306 | 87 | 64 | 0.0 | 2.6 | 0.00 | 0.00 | 0.00 | 43 | 1015.2 |
| 20260901004803 | 88 | 289 | 0.9 | 0.0 | 0.00 | 0.00 | 0.00 | 41 | 1015.1 |
| 20260901004303 | 88 | 188 | 1.7 | 4.3 | 0.00 | 0.00 | 0.00 | 41 | 1015.1 |
| 20260901003804 | 88 | 114 | 1.7 | 4.3 | 0.00 | 0.00 | 0.00 | 40 | 1015.1 |
| 20260901003304 | 89 | 124 | 1.7 | 2.6 | 0.00 | 0.00 | 0.00 | 39 | 1015.1 |
| 20260901002803 | 89 | 331 | 1.7 | 2.6 | 0.00 | 0.00 | 0.00 | 38 | 1015.2 |
| 20260901002305 | 89 | 103 | 1.7 | 4.3 | 0.00 | 0.00 | 0.00 | 37 | 1015.2 |
| 20260901001804 | 90 | 145 | 0.9 | 4.3 | 0.00 | 0.00 | 0.00 | 37 | 1015.2 |
| 20260901001304 | 90 | 124 | 0.9 | 4.3 | 0.00 | 0.00 | 0.00 | 37 | 1015.2 |
| 20260901000304 | 91 | 145 | 1.7 | 4.3 | 0.00 | 0.00 | 0.00 | 35 | 1015.2 |
| 20260831235804 | 91 | 150 | 1.7 | 4.3 | 0.00 | 0.00 | 0.00 | 35 | 1015.2 |
| 20260831235306 | 92 | 122 | 0.9 | 4.3 | 0.00 | 0.00 | 0.00 | 34 | 1015.2 |
| 20260831234804 | 92 | 100 | 1.7 | 4.3 | 0.00 | 0.00 | 0.00 | 34 | 1015.4 |
| 20260831234304 | 93 | 119 | 1.7 | 5.2 | 0.00 | 0.00 | 0.00 | 34 | 1015.4 |
| 20260831233804 | 93 | 84 | 1.7 | 7.0 | 0.00 | 0.00 | 0.00 | 34 | 1015.4 |
| 20260831232803 | 94 | 145 | 2.6 | 6.1 | 0.00 | 0.00 | 0.00 | 31 | 1015.0 |
| 20260831232305 | 95 | 100 | 1.7 | 6.1 | 0.00 | 0.00 | 0.00 | 31 | 1014.9 |
| 20260831231803 | 96 | 91 | 1.7 | 5.2 | 0.00 | 0.00 | 0.00 | 29 | 1014.9 |
| 20260831231304 | 97 | 122 | 1.7 | 4.3 | 0.00 | 0.00 | 0.00 | 28 | 1014.9 |
| 20260831230304 | 99 | 146 | 1.7 | 2.6 | 0.00 | 0.00 | 0.00 | 25 | 1015.1 |